This is the latest recevied weather packets stored in our database for station/object WI0K. If no packets are shown the sender has not sent any weather packets the latest 10 day(s).
| Time | Temp. | Humidity | Pressure | Rain* | Wind** | Luminosity | Snow |
|---|---|---|---|---|---|---|---|
| 1777499432 | 11.67° C | 42% | 830.2 hPa | 0 mm | - | 939 W/m² | - |
| 1777499132 | 11.67° C | 45% | 830.4 hPa | 0 mm | - | 300 W/m² | - |
| 1777498831 | 11.67° C | 46% | 830.6 hPa | 0 mm | - | 299 W/m² | - |
| 1777498530 | 11.67° C | 46% | 830.6 hPa | 0 mm | - | 330 W/m² | - |
| 1777498230 | 11.67° C | 45% | 1017.7 hPa | 0 mm | - | 288 W/m² | - |
| 1777497929 | 11.67° C | 46% | 831 hPa | 0 mm | - | 227 W/m² | - |
| 1777497628 | 12.22° C | 47% | 831.2 hPa | 0 mm | - | 170 W/m² | - |
| 1777497328 | 12.22° C | 44% | 831.2 hPa | 0 mm | - | 129 W/m² | - |
| 1777497027 | 12.78° C | 41% | 831.2 hPa | 0 mm | - | 72 W/m² | - |
| 1777496726 | 12.22° C | 40% | 831 hPa | 0 mm | - | 60 W/m² | - |
| 1777496425 | 12.22° C | 40% | 1017.9 hPa | 0 mm | - | 79 W/m² | - |
| 1777496125 | 12.78° C | 41% | 1017.8 hPa | 0 mm | - | 92 W/m² | - |
| 1777495824 | 12.78° C | 41% | 830.8 hPa | 0 mm | - | 118 W/m² | - |
| 1777495523 | 12.78° C | 42% | 830.8 hPa | 0 mm | - | 126 W/m² | - |
| 1777495222 | 13.33° C | 39% | 830.9 hPa | 0 mm | - | 126 W/m² | - |
| 1777494922 | 13.33° C | 38% | 830.6 hPa | 0 mm | - | 268 W/m² | - |
| 1777494621 | 13.33° C | 38% | 1017.5 hPa | 0 mm | - | 341 W/m² | - |
| 1777494320 | 13.33° C | 39% | 1017.5 hPa | 0 mm | - | 305 W/m² | - |
| 1777494020 | 13.33° C | 39% | 830.5 hPa | 0 mm | - | 284 W/m² | - |
| 1777493719 | 13.33° C | 40% | 830.6 hPa | 0 mm | - | 267 W/m² | - |
| 1777493418 | 13.33° C | 41% | 830.7 hPa | 0 mm | - | 254 W/m² | - |
| 1777493118 | 13.33° C | 42% | 830.7 hPa | 0 mm | - | 313 W/m² | - |
| 1777492817 | 13.33° C | 42% | 830.6 hPa | 0 mm | - | 252 W/m² | - |
| 1777492516 | 13.33° C | 41% | 1017.5 hPa | 0 mm | - | 402 W/m² | - |
| 1777492215 | 13.33° C | 42% | 830.5 hPa | 0 mm | - | 382 W/m² | - |
* Rain latest hour (hover to see other rain measurements)
** Current wind speed in m/s (hover to see current wind gust speed)